Year,Month,Day,Hour,Minute,Value (Times are PST for temperature in C)
2014,07,29,00,00,17.10
2014,07,29,00,01,17.00
2014,07,29,00,02,17.00
2014,07,29,00,03,17.00
2014,07,29,00,04,17.00
2014,07,29,00,05,17.00
2014,07,29,00,06,16.90
2014,07,29,00,07,16.90
2014,07,29,00,08,16.90
2014,07,29,00,09,16.90
2014,07,29,00,10,16.90
2014,07,29,00,11,16.90
2014,07,29,00,12,16.90
2014,07,29,00,13,16.80
2014,07,29,00,14,16.80
2014,07,29,00,15,16.80
2014,07,29,00,16,16.80
2014,07,29,00,17,16.80
2014,07,29,00,18,16.80
2014,07,29,00,19,16.80
2014,07,29,00,20,16.80
2014,07,29,00,21,16.80
2014,07,29,00,22,16.80
2014,07,29,00,23,16.80
2014,07,29,00,24,16.80
2014,07,29,00,25,16.70
2014,07,29,00,26,16.70
2014,07,29,00,27,16.70
2014,07,29,00,28,16.70
2014,07,29,00,29,16.70
2014,07,29,00,30,16.70
2014,07,29,00,31,16.70
2014,07,29,00,32,16.70
2014,07,29,00,33,16.70
2014,07,29,00,34,16.70
2014,07,29,00,35,16.70
2014,07,29,00,36,16.70
2014,07,29,00,37,16.70
2014,07,29,00,38,16.70
2014,07,29,00,39,16.70
2014,07,29,00,40,16.70
2014,07,29,00,41,16.70
2014,07,29,00,42,16.70
2014,07,29,00,43,16.70
2014,07,29,00,44,16.70
2014,07,29,00,45,16.70
2014,07,29,00,46,16.70
2014,07,29,00,47,16.70
2014,07,29,00,48,16.70
2014,07,29,00,49,16.70
2014,07,29,00,50,16.70
2014,07,29,00,51,16.70
2014,07,29,00,52,16.70
2014,07,29,00,53,16.70
2014,07,29,00,54,16.70
2014,07,29,00,55,16.70
2014,07,29,00,56,16.60
2014,07,29,00,57,16.60
2014,07,29,00,58,16.70
2014,07,29,00,59,16.70
2014,07,29,01,00,16.70
2014,07,29,01,01,16.70
2014,07,29,01,02,16.70
2014,07,29,01,03,16.70
2014,07,29,01,04,16.70
2014,07,29,01,05,16.70
2014,07,29,01,06,16.70
2014,07,29,01,07,16.70
2014,07,29,01,08,16.70
2014,07,29,01,09,16.70
2014,07,29,01,10,16.70
2014,07,29,01,11,16.70
2014,07,29,01,12,16.60
2014,07,29,01,13,16.60
2014,07,29,01,14,16.60
2014,07,29,01,15,16.60
2014,07,29,01,16,16.60
2014,07,29,01,17,16.60
2014,07,29,01,18,16.60
2014,07,29,01,19,16.60
2014,07,29,01,20,16.60
2014,07,29,01,21,16.60
2014,07,29,01,22,16.60
2014,07,29,01,23,16.60
2014,07,29,01,24,16.60
2014,07,29,01,25,16.60
2014,07,29,01,26,16.50
2014,07,29,01,27,16.50
2014,07,29,01,28,16.50
2014,07,29,01,29,16.50
2014,07,29,01,30,16.50
2014,07,29,01,31,16.50
2014,07,29,01,32,16.50
2014,07,29,01,33,16.50
2014,07,29,01,34,16.40
2014,07,29,01,35,16.40
2014,07,29,01,36,16.40
2014,07,29,01,37,16.40
2014,07,29,01,38,16.40
2014,07,29,01,39,16.40
2014,07,29,01,40,16.40
2014,07,29,01,41,16.40
2014,07,29,01,42,16.40
2014,07,29,01,43,16.40
2014,07,29,01,44,16.40
2014,07,29,01,45,16.40
2014,07,29,01,46,16.40
2014,07,29,01,47,16.40
2014,07,29,01,48,16.40
2014,07,29,01,49,16.30
2014,07,29,01,50,16.30
2014,07,29,01,51,16.30
2014,07,29,01,52,16.30
2014,07,29,01,53,16.30
2014,07,29,01,54,16.30
2014,07,29,01,55,16.30
2014,07,29,01,56,16.30
2014,07,29,01,57,16.30
2014,07,29,01,58,16.30
2014,07,29,01,59,16.30
2014,07,29,02,00,16.30
2014,07,29,02,01,16.30
2014,07,29,02,02,16.30
2014,07,29,02,03,16.30
2014,07,29,02,04,16.30
2014,07,29,02,05,16.30
2014,07,29,02,06,16.30
2014,07,29,02,07,16.30
2014,07,29,02,08,16.30
2014,07,29,02,09,16.30
2014,07,29,02,10,16.30
2014,07,29,02,11,16.30
2014,07,29,02,12,16.30
2014,07,29,02,13,16.20
2014,07,29,02,14,16.20
2014,07,29,02,15,16.20
2014,07,29,02,16,16.20
2014,07,29,02,17,16.20
2014,07,29,02,18,16.20
2014,07,29,02,19,16.20
2014,07,29,02,20,16.20
2014,07,29,02,21,16.20
2014,07,29,02,22,16.20
2014,07,29,02,23,16.20
2014,07,29,02,24,16.20
2014,07,29,02,25,16.20
2014,07,29,02,26,16.20
2014,07,29,02,27,16.20
2014,07,29,02,28,16.10
2014,07,29,02,29,16.10
2014,07,29,02,30,16.10
2014,07,29,02,31,16.10
2014,07,29,02,32,16.10
2014,07,29,02,33,16.10
2014,07,29,02,34,16.10
2014,07,29,02,35,16.10
2014,07,29,02,36,16.10
2014,07,29,02,37,16.10
2014,07,29,02,38,16.00
2014,07,29,02,39,16.00
2014,07,29,02,40,16.00
2014,07,29,02,41,16.00
2014,07,29,02,42,16.00
2014,07,29,02,43,16.00
2014,07,29,02,44,16.00
2014,07,29,02,45,16.00
2014,07,29,02,46,16.00
2014,07,29,02,47,16.00
2014,07,29,02,48,15.90
2014,07,29,02,49,15.90
2014,07,29,02,50,15.90
2014,07,29,02,51,15.90
2014,07,29,02,52,15.90
2014,07,29,02,53,15.90
2014,07,29,02,54,15.90
2014,07,29,02,55,15.90
2014,07,29,02,56,15.90
2014,07,29,02,57,15.90
2014,07,29,02,58,15.80
2014,07,29,02,59,15.80
2014,07,29,03,00,15.80
2014,07,29,03,01,15.80
2014,07,29,03,02,15.80
2014,07,29,03,03,15.80
2014,07,29,03,04,15.80
2014,07,29,03,05,15.80
2014,07,29,03,06,15.80
2014,07,29,03,07,15.80
2014,07,29,03,08,15.80
2014,07,29,03,09,15.80
2014,07,29,03,10,15.80
2014,07,29,03,11,15.80
2014,07,29,03,12,15.80
2014,07,29,03,13,15.80
2014,07,29,03,14,15.80
2014,07,29,03,15,15.80
2014,07,29,03,16,15.80
2014,07,29,03,17,15.80
2014,07,29,03,18,15.70
2014,07,29,03,19,15.70
2014,07,29,03,20,15.70
2014,07,29,03,21,15.70
2014,07,29,03,22,15.70
2014,07,29,03,23,15.70
2014,07,29,03,24,15.70
2014,07,29,03,25,15.70
2014,07,29,03,26,15.70
2014,07,29,03,27,15.70
2014,07,29,03,28,15.60
2014,07,29,03,29,15.60
2014,07,29,03,30,15.60
2014,07,29,03,31,15.60
2014,07,29,03,32,15.60
2014,07,29,03,33,15.60
2014,07,29,03,34,15.60
2014,07,29,03,35,15.60
2014,07,29,03,36,15.60
2014,07,29,03,37,15.60
2014,07,29,03,38,15.50
2014,07,29,03,39,15.60
2014,07,29,03,40,15.60
2014,07,29,03,41,15.60
2014,07,29,03,42,15.60
2014,07,29,03,43,15.50
2014,07,29,03,44,15.40
2014,07,29,03,45,15.40
2014,07,29,03,46,15.40
2014,07,29,03,47,15.40
2014,07,29,03,48,15.40
2014,07,29,03,49,15.40
2014,07,29,03,50,15.40
2014,07,29,03,51,15.30
2014,07,29,03,52,15.30
2014,07,29,03,53,15.30
2014,07,29,03,54,15.30
2014,07,29,03,55,15.30
2014,07,29,03,56,15.30
2014,07,29,03,57,15.30
2014,07,29,03,58,15.30
2014,07,29,03,59,15.30
2014,07,29,04,00,15.30
2014,07,29,04,01,15.20
2014,07,29,04,02,15.20
2014,07,29,04,03,15.20
2014,07,29,04,04,15.20
2014,07,29,04,05,15.20
2014,07,29,04,06,15.20
2014,07,29,04,07,15.20
2014,07,29,04,08,15.20
2014,07,29,04,09,15.20
2014,07,29,04,10,15.20
2014,07,29,04,11,15.20
2014,07,29,04,12,15.10
2014,07,29,04,13,15.10
2014,07,29,04,14,15.10
2014,07,29,04,15,15.10
2014,07,29,04,16,15.10
2014,07,29,04,17,15.10
2014,07,29,04,18,15.10
2014,07,29,04,19,15.10
2014,07,29,04,20,15.10
2014,07,29,04,21,15.10
2014,07,29,04,22,15.10
2014,07,29,04,23,15.00
2014,07,29,04,24,15.00
2014,07,29,04,25,15.00
2014,07,29,04,26,15.00
2014,07,29,04,27,15.00
2014,07,29,04,28,15.00
2014,07,29,04,29,15.00
2014,07,29,04,30,15.00
2014,07,29,04,31,15.00
2014,07,29,04,32,15.00
2014,07,29,04,33,15.00
2014,07,29,04,34,15.00
2014,07,29,04,35,15.00
2014,07,29,04,36,15.00
2014,07,29,04,37,15.00
2014,07,29,04,38,15.00
2014,07,29,04,39,15.00
2014,07,29,04,40,15.00
2014,07,29,04,41,15.00
2014,07,29,04,42,15.00
2014,07,29,04,43,15.00
2014,07,29,04,44,14.90
2014,07,29,04,45,14.90
2014,07,29,04,46,14.90
2014,07,29,04,47,14.90
2014,07,29,04,48,14.90
2014,07,29,04,49,14.90
2014,07,29,04,50,14.90
2014,07,29,04,51,14.90
2014,07,29,04,52,14.90
2014,07,29,04,53,14.90
2014,07,29,04,54,14.90
2014,07,29,04,55,14.90
2014,07,29,04,56,14.90
2014,07,29,04,57,14.90
2014,07,29,04,58,14.80
2014,07,29,04,59,14.80
2014,07,29,05,00,14.80
2014,07,29,05,01,14.80
2014,07,29,05,02,14.80
2014,07,29,05,03,14.80
2014,07,29,05,04,14.80
2014,07,29,05,05,14.80
2014,07,29,05,06,14.70
2014,07,29,05,07,14.70
2014,07,29,05,08,14.70
2014,07,29,05,09,14.70
2014,07,29,05,10,14.70
2014,07,29,05,11,14.70
2014,07,29,05,12,14.70
2014,07,29,05,13,14.60
2014,07,29,05,14,14.60
2014,07,29,05,15,14.60
2014,07,29,05,16,14.60
2014,07,29,05,17,14.60
2014,07,29,05,18,14.60
2014,07,29,05,19,14.60
2014,07,29,05,20,14.60
2014,07,29,05,21,14.60
2014,07,29,05,22,14.60
2014,07,29,05,23,14.60
2014,07,29,05,24,14.50
2014,07,29,05,25,14.50
2014,07,29,05,26,14.50
2014,07,29,05,27,14.50
2014,07,29,05,28,14.50
2014,07,29,05,29,14.50
2014,07,29,05,30,14.50
2014,07,29,05,31,14.50
2014,07,29,05,32,14.50
2014,07,29,05,33,14.50
2014,07,29,05,34,14.50
2014,07,29,05,35,14.50
2014,07,29,05,36,14.50
2014,07,29,05,37,14.50
2014,07,29,05,38,14.50
2014,07,29,05,39,14.40
2014,07,29,05,40,14.40
2014,07,29,05,41,14.40
2014,07,29,05,42,14.40
2014,07,29,05,43,14.40
2014,07,29,05,44,14.40
2014,07,29,05,45,14.40
2014,07,29,05,46,14.40
2014,07,29,05,47,14.40
2014,07,29,05,48,14.40
2014,07,29,05,49,14.40
2014,07,29,05,50,14.30
2014,07,29,05,51,14.30
2014,07,29,05,52,14.30
2014,07,29,05,53,14.30
2014,07,29,05,54,14.30
2014,07,29,05,55,14.30
2014,07,29,05,56,14.30
2014,07,29,05,57,14.30
2014,07,29,05,58,14.30
2014,07,29,05,59,14.30
2014,07,29,06,00,14.30
2014,07,29,06,01,14.20
2014,07,29,06,02,14.20
2014,07,29,06,03,14.20
2014,07,29,06,04,14.20
2014,07,29,06,05,14.20
2014,07,29,06,06,14.20
2014,07,29,06,07,14.20
2014,07,29,06,08,14.20
2014,07,29,06,09,14.20
2014,07,29,06,10,14.20
2014,07,29,06,11,14.20
2014,07,29,06,12,14.20
2014,07,29,06,13,14.20
2014,07,29,06,14,14.20
2014,07,29,06,15,14.20
2014,07,29,06,16,14.20
2014,07,29,06,17,14.20
2014,07,29,06,18,14.30
2014,07,29,06,19,14.30
2014,07,29,06,20,14.30
2014,07,29,06,21,14.30
2014,07,29,06,22,14.30
2014,07,29,06,23,14.30
2014,07,29,06,24,14.30
2014,07,29,06,25,14.30
2014,07,29,06,26,14.30
2014,07,29,06,27,14.30
2014,07,29,06,28,14.40
2014,07,29,06,29,14.40
2014,07,29,06,30,14.40
2014,07,29,06,31,14.50
2014,07,29,06,32,14.60
2014,07,29,06,33,14.60
2014,07,29,06,34,14.70
2014,07,29,06,35,14.70
2014,07,29,06,36,14.80
2014,07,29,06,37,14.80
2014,07,29,06,38,14.90
2014,07,29,06,39,14.90
2014,07,29,06,40,15.00
2014,07,29,06,41,15.00
2014,07,29,06,42,15.10
2014,07,29,06,43,15.10
2014,07,29,06,44,15.20
2014,07,29,06,45,15.30
2014,07,29,06,46,15.30
2014,07,29,06,47,15.40
2014,07,29,06,48,15.40
2014,07,29,06,49,15.50
2014,07,29,06,50,15.50
2014,07,29,06,51,15.50
2014,07,29,06,52,15.60
2014,07,29,06,53,15.60
2014,07,29,06,54,15.70
2014,07,29,06,55,15.70
2014,07,29,06,56,15.70
2014,07,29,06,57,15.80
2014,07,29,06,58,15.80
2014,07,29,06,59,15.80
2014,07,29,07,00,15.80
2014,07,29,07,01,15.90
2014,07,29,07,02,15.90
2014,07,29,07,03,15.90
2014,07,29,07,04,16.00
2014,07,29,07,05,16.10
2014,07,29,07,06,16.20
2014,07,29,07,07,16.20
2014,07,29,07,08,16.30
2014,07,29,07,09,16.30
2014,07,29,07,10,16.40
2014,07,29,07,11,16.40
2014,07,29,07,12,16.50
2014,07,29,07,13,16.60
2014,07,29,07,14,16.70
2014,07,29,07,15,16.70
2014,07,29,07,16,16.80
2014,07,29,07,17,16.90
2014,07,29,07,18,16.90
2014,07,29,07,19,17.00
2014,07,29,07,20,17.10
2014,07,29,07,21,17.10
2014,07,29,07,22,17.20
2014,07,29,07,23,17.20
2014,07,29,07,24,17.30
2014,07,29,07,25,17.30
2014,07,29,07,26,17.40
2014,07,29,07,27,17.40
2014,07,29,07,28,17.50
2014,07,29,07,29,17.50
2014,07,29,07,30,17.60
2014,07,29,07,31,17.70
2014,07,29,07,32,17.70
2014,07,29,07,33,17.70
2014,07,29,07,34,17.80
2014,07,29,07,35,17.80
2014,07,29,07,36,17.90
2014,07,29,07,37,17.90
2014,07,29,07,38,17.90
2014,07,29,07,39,18.00
2014,07,29,07,40,18.00
2014,07,29,07,41,18.10
2014,07,29,07,42,18.10
2014,07,29,07,43,18.10
2014,07,29,07,44,18.20
2014,07,29,07,45,18.20
2014,07,29,07,46,18.20
2014,07,29,07,47,18.30
2014,07,29,07,48,18.40
2014,07,29,07,49,18.40
2014,07,29,07,50,18.50
2014,07,29,07,51,18.50
2014,07,29,07,52,18.60
2014,07,29,07,53,18.60
2014,07,29,07,54,18.60
2014,07,29,07,55,18.60
2014,07,29,07,56,18.60
2014,07,29,07,57,18.60
2014,07,29,07,58,18.60
2014,07,29,07,59,18.60
2014,07,29,08,00,18.60
2014,07,29,08,01,18.60
2014,07,29,08,02,18.60
2014,07,29,08,03,18.60
2014,07,29,08,04,18.60
2014,07,29,08,05,18.60
2014,07,29,08,06,18.60
2014,07,29,08,07,18.60
2014,07,29,08,08,18.60
2014,07,29,08,09,18.70
2014,07,29,08,10,18.70
2014,07,29,08,11,18.70
2014,07,29,08,12,18.80
2014,07,29,08,13,18.80
2014,07,29,08,14,18.80
2014,07,29,08,15,18.90
2014,07,29,08,16,18.90
2014,07,29,08,17,19.00
2014,07,29,08,18,19.00
2014,07,29,08,19,19.10
2014,07,29,08,20,19.10
2014,07,29,08,21,19.20
2014,07,29,08,22,19.20
2014,07,29,08,23,19.20
2014,07,29,08,24,19.30
2014,07,29,08,25,19.30
2014,07,29,08,26,19.40
2014,07,29,08,27,19.40
2014,07,29,08,28,19.40
2014,07,29,08,29,19.50
2014,07,29,08,30,19.50
2014,07,29,08,31,19.60
2014,07,29,08,32,19.60
2014,07,29,08,33,19.60
2014,07,29,08,34,19.60
2014,07,29,08,35,19.70
2014,07,29,08,36,19.70
2014,07,29,08,37,19.70
2014,07,29,08,38,19.70
2014,07,29,08,39,19.80
2014,07,29,08,40,19.80
2014,07,29,08,41,19.80
2014,07,29,08,42,19.90
2014,07,29,08,43,19.90
2014,07,29,08,44,19.90
2014,07,29,08,45,20.00
2014,07,29,08,46,20.00
2014,07,29,08,47,20.00
2014,07,29,08,48,20.10
2014,07,29,08,49,20.10
2014,07,29,08,50,20.10
2014,07,29,08,51,20.10
2014,07,29,08,52,20.10
2014,07,29,08,53,20.10
2014,07,29,08,54,20.20
2014,07,29,08,55,20.20
2014,07,29,08,56,20.20
2014,07,29,08,57,20.20
2014,07,29,08,58,20.20
2014,07,29,08,59,20.20
2014,07,29,09,00,20.20
2014,07,29,09,01,20.20
2014,07,29,09,02,20.20
2014,07,29,09,03,20.20
2014,07,29,09,04,20.20
2014,07,29,09,05,20.20
2014,07,29,09,06,20.30
2014,07,29,09,07,20.30
2014,07,29,09,08,20.40
2014,07,29,09,09,20.40
2014,07,29,09,10,20.50
2014,07,29,09,11,20.50
2014,07,29,09,12,20.60
2014,07,29,09,13,20.60
2014,07,29,09,14,20.70
2014,07,29,09,15,20.70
2014,07,29,09,16,20.80
2014,07,29,09,17,20.80
2014,07,29,09,18,20.90
2014,07,29,09,19,20.90
2014,07,29,09,20,21.00
2014,07,29,09,21,21.10
2014,07,29,09,22,21.10
2014,07,29,09,23,21.20
2014,07,29,09,24,21.20
2014,07,29,09,25,21.20
2014,07,29,09,26,21.30
2014,07,29,09,27,21.30
2014,07,29,09,28,21.40
2014,07,29,09,29,21.50
2014,07,29,09,30,21.50
2014,07,29,09,31,21.60
2014,07,29,09,32,21.60
2014,07,29,09,33,21.70
2014,07,29,09,34,21.80
2014,07,29,09,35,21.80
2014,07,29,09,36,21.90
2014,07,29,09,37,21.90
2014,07,29,09,38,22.00
2014,07,29,09,39,22.00
2014,07,29,09,40,22.10
2014,07,29,09,41,22.10
2014,07,29,09,42,22.10
2014,07,29,09,43,22.10
2014,07,29,09,44,22.10
2014,07,29,09,45,22.10
2014,07,29,09,46,22.10
2014,07,29,09,47,22.10
2014,07,29,09,48,22.10
2014,07,29,09,49,22.10
2014,07,29,09,50,22.10
2014,07,29,09,51,22.10
2014,07,29,09,52,22.10
2014,07,29,09,53,22.10
2014,07,29,09,54,22.20
2014,07,29,09,55,22.20
2014,07,29,09,56,22.20
2014,07,29,09,57,22.20
2014,07,29,09,58,22.20
2014,07,29,09,59,22.20
2014,07,29,10,00,22.20
2014,07,29,10,01,22.20
2014,07,29,10,02,22.20
2014,07,29,10,03,22.20
2014,07,29,10,04,22.30
2014,07,29,10,05,22.30
2014,07,29,10,06,22.30
2014,07,29,10,07,22.30
2014,07,29,10,08,22.30
2014,07,29,10,09,22.30
2014,07,29,10,10,22.30
2014,07,29,10,11,22.30
2014,07,29,10,12,22.30
2014,07,29,10,13,22.30
2014,07,29,10,14,22.30
2014,07,29,10,15,22.40
2014,07,29,10,16,22.40
2014,07,29,10,17,22.40
2014,07,29,10,18,22.40
2014,07,29,10,19,22.30
2014,07,29,10,20,22.30
2014,07,29,10,21,22.30
2014,07,29,10,22,22.30
2014,07,29,10,23,22.40
2014,07,29,10,24,22.50
2014,07,29,10,25,22.60
2014,07,29,10,26,22.60
2014,07,29,10,27,22.60
2014,07,29,10,28,22.70
2014,07,29,10,29,22.60
2014,07,29,10,30,22.60
2014,07,29,10,31,22.60
2014,07,29,10,32,22.70
2014,07,29,10,33,22.60
2014,07,29,10,34,22.70
2014,07,29,10,35,22.70
2014,07,29,10,36,22.70
2014,07,29,10,37,22.70
2014,07,29,10,38,22.70
2014,07,29,10,39,22.70
2014,07,29,10,40,22.70
2014,07,29,10,41,22.70
2014,07,29,10,42,22.70
2014,07,29,10,43,22.70
2014,07,29,10,44,22.70
2014,07,29,10,45,22.70
2014,07,29,10,46,22.80
2014,07,29,10,47,22.80
2014,07,29,10,48,22.70
2014,07,29,10,49,22.70
2014,07,29,10,50,22.70
2014,07,29,10,51,22.70
2014,07,29,10,52,22.70
2014,07,29,10,53,22.60
2014,07,29,10,54,22.60
2014,07,29,10,55,22.50
2014,07,29,10,56,22.40
2014,07,29,10,57,22.40
2014,07,29,10,58,22.30
2014,07,29,10,59,22.30
2014,07,29,11,00,22.30
2014,07,29,11,01,22.20
2014,07,29,11,02,22.20
2014,07,29,11,03,22.30
2014,07,29,11,04,22.30
2014,07,29,11,05,22.40
2014,07,29,11,06,22.40
2014,07,29,11,07,22.50
2014,07,29,11,08,22.50
2014,07,29,11,09,22.60
2014,07,29,11,10,22.60
2014,07,29,11,11,22.60
2014,07,29,11,12,22.60
2014,07,29,11,13,22.60
2014,07,29,11,14,22.60
2014,07,29,11,15,22.60
2014,07,29,11,16,22.60
2014,07,29,11,17,22.70
2014,07,29,11,18,22.70
2014,07,29,11,19,22.70
2014,07,29,11,20,22.70
2014,07,29,11,21,22.70
2014,07,29,11,22,22.70
2014,07,29,11,23,22.70
2014,07,29,11,24,22.70
2014,07,29,11,25,22.70
2014,07,29,11,26,22.60
2014,07,29,11,27,22.60
2014,07,29,11,28,22.60
2014,07,29,11,29,22.60
2014,07,29,11,30,22.60
2014,07,29,11,31,22.70
2014,07,29,11,32,22.70
2014,07,29,11,33,22.80
2014,07,29,11,34,22.80
2014,07,29,11,35,22.90
2014,07,29,11,36,23.00
2014,07,29,11,37,23.00
2014,07,29,11,38,23.00
2014,07,29,11,39,23.10
2014,07,29,11,40,23.10
2014,07,29,11,41,23.10
2014,07,29,11,42,23.20
2014,07,29,11,43,23.10
2014,07,29,11,44,23.10
2014,07,29,11,45,23.10
2014,07,29,11,46,23.10
2014,07,29,11,47,23.20
2014,07,29,11,48,23.20
2014,07,29,11,49,23.20
2014,07,29,11,50,23.20
2014,07,29,11,51,23.30
2014,07,29,11,52,23.50
2014,07,29,11,53,23.60
2014,07,29,11,54,23.70
2014,07,29,11,55,23.80
2014,07,29,11,56,23.90
2014,07,29,11,57,23.90
2014,07,29,11,58,24.00
2014,07,29,11,59,24.10
2014,07,29,12,00,24.10
2014,07,29,12,01,24.20
2014,07,29,12,02,24.30
2014,07,29,12,03,24.30
2014,07,29,12,04,24.40
2014,07,29,12,05,24.40
2014,07,29,12,06,24.40
2014,07,29,12,07,24.40
2014,07,29,12,08,24.30
2014,07,29,12,09,24.30
2014,07,29,12,10,24.30
2014,07,29,12,11,24.40
2014,07,29,12,12,24.50
2014,07,29,12,13,24.60
2014,07,29,12,14,24.70
2014,07,29,12,15,24.70
2014,07,29,12,16,24.70
2014,07,29,12,17,24.80
2014,07,29,12,18,24.90
2014,07,29,12,19,24.90
2014,07,29,12,20,24.90
2014,07,29,12,21,24.90
2014,07,29,12,22,24.80
2014,07,29,12,23,24.90
2014,07,29,12,24,25.00
2014,07,29,12,25,25.10
2014,07,29,12,26,25.10
2014,07,29,12,27,25.20
2014,07,29,12,28,25.30
2014,07,29,12,29,25.30
2014,07,29,12,30,25.30
2014,07,29,12,31,25.40
2014,07,29,12,32,25.40
2014,07,29,12,33,25.40
2014,07,29,12,34,25.40
2014,07,29,12,35,25.50
2014,07,29,12,36,25.60
2014,07,29,12,37,25.70
2014,07,29,12,38,25.70
2014,07,29,12,39,25.70
2014,07,29,12,40,25.70
2014,07,29,12,41,25.80
2014,07,29,12,42,25.80
2014,07,29,12,43,25.80
2014,07,29,12,44,25.80
2014,07,29,12,45,25.90
2014,07,29,12,46,26.00
2014,07,29,12,47,26.10
2014,07,29,12,48,26.10
2014,07,29,12,49,26.20
2014,07,29,12,50,26.20
2014,07,29,12,51,26.20
2014,07,29,12,52,26.20
2014,07,29,12,53,26.20
2014,07,29,12,54,26.20
2014,07,29,12,55,26.20
2014,07,29,12,56,26.20
2014,07,29,12,57,26.20
2014,07,29,12,58,26.20
2014,07,29,12,59,26.20
2014,07,29,13,00,26.20
2014,07,29,13,01,26.20
2014,07,29,13,02,26.30
2014,07,29,13,03,26.30
2014,07,29,13,04,26.30
2014,07,29,13,05,26.40
2014,07,29,13,06,26.40
2014,07,29,13,07,26.40
2014,07,29,13,08,26.50
2014,07,29,13,09,26.40
2014,07,29,13,10,26.40
2014,07,29,13,11,26.40
2014,07,29,13,12,26.30
2014,07,29,13,13,26.30
2014,07,29,13,14,26.20
2014,07,29,13,15,26.20
2014,07,29,13,16,26.20
2014,07,29,13,17,26.20
2014,07,29,13,18,26.20
2014,07,29,13,19,26.20
2014,07,29,13,20,26.20
2014,07,29,13,21,26.20
2014,07,29,13,22,26.20
2014,07,29,13,23,26.20
2014,07,29,13,24,26.20
2014,07,29,13,25,26.30
2014,07,29,13,26,26.40
2014,07,29,13,27,26.40
2014,07,29,13,28,26.50
2014,07,29,13,29,26.50
2014,07,29,13,30,26.60
2014,07,29,13,31,26.70
2014,07,29,13,32,27.00
2014,07,29,13,33,27.00
2014,07,29,13,34,27.10
2014,07,29,13,35,27.10
2014,07,29,13,36,27.10
2014,07,29,13,37,27.10
2014,07,29,13,38,27.10
2014,07,29,13,39,27.20
2014,07,29,13,40,27.20
2014,07,29,13,41,27.20
2014,07,29,13,42,27.20
2014,07,29,13,43,27.20
2014,07,29,13,44,27.20
2014,07,29,13,45,27.30
2014,07,29,13,46,27.40
2014,07,29,13,47,27.40
2014,07,29,13,48,27.40
2014,07,29,13,49,27.30
2014,07,29,13,50,27.30
2014,07,29,13,51,27.20
2014,07,29,13,52,27.20
2014,07,29,13,53,27.10
2014,07,29,13,54,27.10
2014,07,29,13,55,27.10
2014,07,29,13,56,27.10
2014,07,29,13,57,27.10
2014,07,29,13,58,27.10
2014,07,29,13,59,27.00
2014,07,29,14,00,27.00
2014,07,29,14,01,27.00
2014,07,29,14,02,27.00
2014,07,29,14,03,27.00
2014,07,29,14,04,27.00
2014,07,29,14,05,27.00
2014,07,29,14,06,27.00
2014,07,29,14,07,26.90
2014,07,29,14,08,26.90
2014,07,29,14,09,26.80
2014,07,29,14,10,26.80
2014,07,29,14,11,26.80
2014,07,29,14,12,26.80
2014,07,29,14,13,26.90
2014,07,29,14,14,27.00
2014,07,29,14,15,27.10
2014,07,29,14,16,27.10
2014,07,29,14,17,27.20
2014,07,29,14,18,27.30
2014,07,29,14,19,27.30
2014,07,29,14,20,27.30
2014,07,29,14,21,27.30
2014,07,29,14,22,27.30
2014,07,29,14,23,27.20
2014,07,29,14,24,27.20
2014,07,29,14,25,27.20
2014,07,29,14,26,27.20
2014,07,29,14,27,27.30
2014,07,29,14,28,27.30
2014,07,29,14,29,27.30
2014,07,29,14,30,27.30
2014,07,29,14,31,27.30
2014,07,29,14,32,27.30
2014,07,29,14,33,27.30
2014,07,29,14,34,27.30
2014,07,29,14,35,27.20
2014,07,29,14,36,27.30
2014,07,29,14,37,27.30
2014,07,29,14,38,27.30
2014,07,29,14,39,27.30
2014,07,29,14,40,27.30
2014,07,29,14,41,27.30
2014,07,29,14,42,27.30
2014,07,29,14,43,27.30
2014,07,29,14,44,27.30
2014,07,29,14,45,27.40
2014,07,29,14,46,27.40
2014,07,29,14,47,27.30
2014,07,29,14,48,27.40
2014,07,29,14,49,27.40
2014,07,29,14,50,27.40
2014,07,29,14,51,27.40
2014,07,29,14,52,27.40
2014,07,29,14,53,27.40
2014,07,29,14,54,27.50
2014,07,29,14,55,27.60
2014,07,29,14,56,27.60
2014,07,29,14,57,27.60
2014,07,29,14,58,27.60
2014,07,29,14,59,27.60
2014,07,29,15,00,27.60
2014,07,29,15,01,27.60
2014,07,29,15,02,27.60
2014,07,29,15,03,27.60
2014,07,29,15,04,27.60
2014,07,29,15,05,27.50
2014,07,29,15,06,27.50
2014,07,29,15,07,27.40
2014,07,29,15,08,27.30
2014,07,29,15,09,27.30
2014,07,29,15,10,27.30
2014,07,29,15,11,27.30
2014,07,29,15,12,27.20
2014,07,29,15,13,27.20
2014,07,29,15,14,27.20
2014,07,29,15,15,27.20
2014,07,29,15,16,27.30
2014,07,29,15,17,27.30
2014,07,29,15,18,27.40
2014,07,29,15,19,27.40
2014,07,29,15,20,27.40
2014,07,29,15,21,27.40
2014,07,29,15,22,27.40
2014,07,29,15,23,27.40
2014,07,29,15,24,27.40
2014,07,29,15,25,27.30
2014,07,29,15,26,27.30
2014,07,29,15,27,27.20
2014,07,29,15,28,27.10
2014,07,29,15,29,27.10
2014,07,29,15,30,27.10
2014,07,29,15,31,27.10
2014,07,29,15,32,27.00
2014,07,29,15,33,27.00
2014,07,29,15,34,26.90
2014,07,29,15,35,26.90
2014,07,29,15,36,26.90
2014,07,29,15,37,26.90
2014,07,29,15,38,26.80
2014,07,29,15,39,26.90
2014,07,29,15,40,26.90
2014,07,29,15,41,26.90
2014,07,29,15,42,26.90
2014,07,29,15,43,26.90
2014,07,29,15,44,26.90
2014,07,29,15,45,26.90
2014,07,29,15,46,26.90
2014,07,29,15,47,26.90
2014,07,29,15,48,26.90
2014,07,29,15,49,26.90
2014,07,29,15,50,26.80
2014,07,29,15,51,26.80
2014,07,29,15,52,26.70
2014,07,29,15,53,26.70
2014,07,29,15,54,26.80
2014,07,29,15,55,26.80
2014,07,29,15,56,26.80
2014,07,29,15,57,26.80
2014,07,29,15,58,26.80
2014,07,29,15,59,26.80
2014,07,29,16,00,26.80
2014,07,29,16,01,26.80
2014,07,29,16,02,26.80
2014,07,29,16,03,26.80
2014,07,29,16,04,26.80
2014,07,29,16,05,26.80
2014,07,29,16,06,26.80
2014,07,29,16,07,26.80
2014,07,29,16,08,26.90
2014,07,29,16,09,26.90
2014,07,29,16,10,27.00
2014,07,29,16,11,27.10
2014,07,29,16,12,27.10
2014,07,29,16,13,27.20
2014,07,29,16,14,27.30
2014,07,29,16,15,27.30
2014,07,29,16,16,27.30
2014,07,29,16,17,27.40
2014,07,29,16,18,27.40
2014,07,29,16,19,27.40
2014,07,29,16,20,27.50
2014,07,29,16,21,27.50
2014,07,29,16,22,27.50
2014,07,29,16,23,27.50
2014,07,29,16,24,27.50
2014,07,29,16,25,27.50
2014,07,29,16,26,27.60
2014,07,29,16,27,27.60
2014,07,29,16,28,27.60
2014,07,29,16,29,27.60
2014,07,29,16,30,27.70
2014,07,29,16,31,27.80
2014,07,29,16,32,27.90
2014,07,29,16,33,28.00
2014,07,29,16,34,28.10
2014,07,29,16,35,28.10
2014,07,29,16,36,28.20
2014,07,29,16,37,28.20
2014,07,29,16,38,28.20
2014,07,29,16,39,28.20
2014,07,29,16,40,28.20
2014,07,29,16,41,28.20
2014,07,29,16,42,28.20
2014,07,29,16,43,28.30
2014,07,29,16,44,28.30
2014,07,29,16,45,28.30
2014,07,29,16,46,28.30
2014,07,29,16,47,28.30
2014,07,29,16,48,28.20
2014,07,29,16,49,28.20
2014,07,29,16,50,28.20
2014,07,29,16,51,28.20
2014,07,29,16,52,28.20
2014,07,29,16,53,28.30
2014,07,29,16,54,28.30
2014,07,29,16,55,28.30
2014,07,29,16,56,28.30
2014,07,29,16,57,28.30
2014,07,29,16,58,28.30
2014,07,29,16,59,28.30
2014,07,29,17,00,28.30
2014,07,29,17,01,28.30
2014,07,29,17,02,28.30
2014,07,29,17,03,28.30
2014,07,29,17,04,28.30
2014,07,29,17,05,28.30
2014,07,29,17,06,28.30
2014,07,29,17,07,28.30
2014,07,29,17,08,28.30
2014,07,29,17,09,28.40
2014,07,29,17,10,28.40
2014,07,29,17,11,28.40
2014,07,29,17,12,28.40
2014,07,29,17,13,28.40
2014,07,29,17,14,28.40
2014,07,29,17,15,28.40
2014,07,29,17,16,28.40
2014,07,29,17,17,28.30
2014,07,29,17,18,28.40
2014,07,29,17,19,28.40